Vorticity
26 18 -5 20 16 3 -2 6 5 6 10 6 17 -2 10 18 23 9 46 14 12 13 22 13 2 7 10 1 11 5 40 26 15 6 1 4 3 6 6 4 4 4 4 5
5 2 16 9 1 3 4 3 7 17 -6 24 4 3 42 40 12 1 26 29 15 6 11 20 4 4 4 14 6 14 47 33 4 10 -2 6 4 5 6 6 5 5 5 5
3 -23 -6 27 10 14 11 8 1 5 6 14 16 38 2 3 11 14 22 30 21 11 7 13 12 2 5 10 7 0 13 8 23 10 -15 11 4 4 4 5 7 6 6 6
27 32 13 11 -1 3 5 16 3 9 15 5 -30 -15 20 31 17 11 16 20 19 14 11 3 21 7 4 6 19 18 7 6 42 -0 9 5 4 4 3 4 8 8 7 7
-13 4 22 15 3 22 -2 -5 8 9 7 12 22 16 -5 5 1 10 9 12 25 9 18 11 5 21 2 4 18 1 8 27 25 -67 23 46 4 3 3 4 5 6 8 7
2 -3 -0 9 14 4 -7 9 14 17 13 32 31 -8 23 14 15 8 -4 12 23 11 20 10 13 11 16 1 1 9 24 18 3 11 9 -6 15 5 5 3 2 4 5 8
32 23 13 12 9 13 -6 2 13 17 5 -8 18 19 -27 -15 -10 -3 -0 -6 11 13 8 16 21 7 23 14 2 -0 10 7 6 8 13 10 17 5 6 5 3 4 3 6
12 29 22 4 6 -7 22 5 -30 8 2 8 21 16 14 12 23 23 12 3 8 13 12 12 8 26 5 25 17 9 2 4 10 -5 7 26 16 13 -5 11 7 7 5 6
19 6 24 -1 13 19 37 11 4 0 9 14 -4 -19 -6 -8 -1 13 6 7 12 13 9 9 10 9 17 17 20 15 8 7 6 6 13 7 -6 7 1 -2 15 14 6 2
26 37 26 18 2 28 -7 39 4 5 11 -2 16 15 -14 9 30 9 2 9 4 8 8 7 12 13 17 11 25 19 17 8 10 7 4 18 19 10 0 11 2 -3 5 5
1 18 -10 18 23 4 23 13 -13 23 -24 -2 7 15 26 18 13 12 20 13 3 5 7 6 4 5 13 14 16 23 17 14 11 8 10 9 10 -2 -5 12 19 -4 16 6
29 11 14 21 -16 -6 16 4 7 -37 17 13 -13 7 -18 1 21 15 11 7 -2 7 3 2 1 3 3 -1 16 8 35 20 15 14 11 -4 19 10 10 24 19 -2 4 26
-2 -3 23 48 26 -3 18 17 16 8 13 5 -30 13 49 -5 18 13 3 5 7 4 9 7 12 14 9 5 8 4 14 32 15 5 10 13 4 2 7 6 12 31 11 -8
5 22 1 -29 -24 -55 6 6 -8 -12 41 44 5 0 -7 -11 1 -8 31 10 12 -4 1 10 7 8 19 11 8 8 11 13 26 15 5 4 12 9 10 24 5 42 27 11
27 6 11 18 11 6 2 1 3 2 -4 19 39 28 7 -8 -7 6 1 16 27 -18 -22 -4 6 7 11 20 12 5 12 13 11 25 21 2 1 11 14 21 -12 6 2 13
-10 11 6 7 9 7 6 7 5 -0 -0 -3 5 36 -0 -10 62 -34 -1 1 11 9 3 1 8 8 16 1 11 23 3 8 11 12 16 22 13 10 5 1 6 -0 17 31
9 11 10 5 12 13 43 14 17 20 9 2 -1 12 4 34 -6 10 -2 28 10 20 9 11 5 12 14 6 2 22 25 4 2 7 12 19 13 6 9 10 15 16 13 2
15 17 17 18 18 28 3 24 16 -1 7 25 20 27 7 -11 19 22 9 9 2 -17 13 11 13 10 7 10 10 3 19 17 16 5 5 9 19 21 14 10 8 19 22 3
21 17 27 5 7 -31 7 5 10 11 25 28 7 5 14 20 0 38 -20 -27 -2 -7 -4 11 14 9 10 8 8 13 10 15 17 13 9 6 8 11 18 12 13 11 12 10
28 -10 35 -14 -2 15 5 9 5 29 19 7 33 14 49 14 12 22 13 12 17 19 23 12 12 9 7 7 9 12 14 13 13 11 10 9 6 7 10 12 15 13 11 9
16 22 28 15 17 34 1 0 7 38 39 30 7 3 9 6 -6 8 14 10 19 25 25 27 11 9 8 8 7 8 12 13 14 12 8 6 11 12 10 10 13 12 15 12
21 22 21 16 26 66 -80 15 3 -6 39 17 21 26 34 35 13 18 12 26 28 25 17 9 10 10 11 10 14 12 18 20 21 20 15 11 9 15 15 15 14 17 17 24
19 23 -4 9 -47 -3 22 23 64 25 29 29 -21 7 45 15 23 16 16 -21 29 7 9 11 12 10 11 16 18 17 22 23 21 22 24 25 24 21 20 11 8 14 19 19
23 -3 19 57 -20 40 10 60 49 59 27 29 18 6 37 22 7 21 15 28 13 11 13 12 8 12 14 17 20 19 20 19 21 18 17 18 17 17 19 21 23 26 27 24
29 5 20 18 6 46 25 26 23 23 21 13 18 43 18 27 27 31 15 13 11 12 8 9 9 10 13 15 12 13 11 7 1 0 -4 2 6 11 14 12 10 10 10 11
19 16 32 -2 11 29 20 33 24 30 37 33 37 13 9 8 10 5 10 11 8 7 8 9 8 8 7 10 7 4 4 2 0 -1 -4 -12 -10 1 -8 0 5 3 8 10
Height
3054 3054 3051 3056 3055 3053 3053 3051 3048 3046 3046 3039 3032 3024 3021 3022 3018 3013 3010 3013 3017 3021 3025 3027 3029 3032 3034 3033 3035 3045 3051 3053 3061 3068 3075 3083 3090 3096 3101 3106 3111 3115 3120 3124
3053 3044 3046 3049 3052 3049 3048 3047 3043 3043 3037 3033 3027 3015 3016 3012 3011 3008 3005 3006 3012 3019 3023 3022 3024 3028 3030 3032 3035 3040 3041 3049 3051 3066 3074 3084 3089 3093 3097 3102 3107 3111 3116 3120
3042 3042 3041 3041 3043 3043 3042 3042 3041 3040 3036 3031 3025 3013 3014 3013 3007 3004 3002 3001 3006 3011 3016 3016 3019 3021 3025 3027 3030 3036 3042 3055 3054 3062 3066 3074 3079 3085 3091 3098 3103 3109 3113 3117
3036 3034 3035 3036 3037 3040 3038 3039 3037 3035 3034 3031 3030 3012 3008 3011 3007 3000 3001 2998 3001 3004 3009 3013 3015 3018 3021 3025 3030 3032 3034 3038 3046 3056 3063 3069 3076 3084 3093 3098 3102 3105 3109 3112
3028 3027 3028 3030 3030 3035 3034 3033 3033 3031 3030 3028 3026 3023 3002 3008 3007 3001 2998 3000 2998 2999 3001 3006 3008 3011 3019 3022 3024 3028 3029 3032 3038 3050 3059 3065 3071 3080 3087 3091 3096 3100 3104 3108
3022 3022 3023 3025 3027 3029 3028 3029 3029 3028 3028 3022 3016 3018 3000 3003 3003 3000 2998 2998 2998 2998 3000 3002 3005 3006 3012 3016 3017 3020 3026 3032 3039 3044 3053 3060 3069 3074 3078 3084 3089 3094 3098 3102
3015 3013 3015 3018 3021 3022 3023 3028 3028 3025 3025 3013 3009 3010 2995 2997 2997 2997 2996 2995 2998 2999 2999 3000 3003 3005 3007 3012 3017 3019 3023 3029 3035 3041 3046 3047 3060 3068 3072 3078 3083 3087 3092 3096
3010 3008 3009 3007 3008 3014 3013 3017 3017 3012 3008 3005 3007 3000 2991 2991 2992 2993 2993 2993 2994 2995 2998 3000 3001 3003 3004 3009 3013 3017 3022 3027 3030 3036 3037 3046 3049 3056 3065 3070 3076 3081 3086 3092
3004 3000 3000 3000 3003 3008 3008 3007 3012 3012 3009 3009 2994 2990 2989 2989 2988 2990 2991 2991 2991 2993 2994 2998 3001 3002 3002 3004 3009 3013 3017 3023 3027 3030 3035 3037 3043 3050 3053 3062 3069 3073 3079 3084
3000 2994 2994 2997 2996 2997 3000 3003 3007 3007 3003 2996 2984 2984 2982 2982 2983 2984 2986 2989 2990 2991 2992 2993 2996 2999 3001 3001 3004 3008 3012 3014 3021 3026 3029 3034 3038 3037 3046 3053 3059 3065 3072 3075
2993 2994 2990 2989 2987 2991 2993 2993 2994 2995 2993 2986 2981 2978 2978 2979 2980 2980 2982 2985 2987 2988 2989 2990 2992 2994 2996 2998 3000 3002 3005 3009 3012 3019 3024 3028 3032 3036 3039 3044 3050 3056 3062 3066
2992 2988 2983 2982 2985 2987 2987 2987 2989 2986 2983 2983 2983 2976 2978 2978 2977 2978 2980 2981 2983 2985 2986 2987 2988 2989 2992 2994 2995 2996 3000 3002 3005 3011 3018 3022 3027 3031 3033 3036 3042 3047 3050 3054
2991 2988 2982 2973 2979 2978 2979 2982 2983 2980 2978 2974 2973 2968 2976 2977 2977 2977 2978 2979 2980 2982 2982 2983 2984 2985 2986 2987 2989 2990 2992 2994 3001 3005 3011 3015 3020 3024 3026 3029 3033 3037 3040 3044
2990 2986 2987 2982 2974 2974 2973 2971 2970 2973 2970 2966 2965 2963 2971 2974 2976 2975 2975 2975 2976 2978 2977 2979 2980 2981 2981 2983 2985 2987 2990 2993 2997 2999 3004 3008 3014 3017 3019 3022 3024 3027 3032 3035
2985 2980 2980 2976 2975 2972 2966 2966 2961 2966 2965 2967 2958 2962 2966 2971 2973 2973 2972 2972 2973 2973 2973 2974 2977 2979 2979 2980 2982 2985 2988 2990 2991 2995 2998 3001 3006 3010 3011 3014 3016 3018 3017 3021
2978 2973 2973 2968 2968 2967 2959 2957 2956 2950 2953 2957 2952 2949 2955 2963 2965 2968 2966 2968 2969 2971 2971 2970 2974 2975 2977 2978 2979 2980 2983 2987 2989 2991 2994 2997 2999 3002 3006 3007 3008 3010 3010 3013
2970 2969 2966 2957 2955 2958 2950 2946 2941 2939 2940 2948 2942 2940 2946 2951 2955 2957 2960 2963 2964 2966 2966 2967 2969 2971 2972 2973 2974 2975 2977 2980 2984 2986 2989 2991 2992 2994 2999 3002 3003 3004 3005 3008
2960 2960 2957 2949 2949 2942 2934 2934 2933 2929 2923 2931 2934 2933 2938 2940 2944 2949 2952 2955 2958 2959 2960 2961 2964 2966 2968 2969 2970 2972 2973 2975 2978 2980 2982 2984 2986 2987 2991 2992 2992 2994 2998 3001
2953 2951 2946 2943 2938 2929 2922 2926 2925 2922 2916 2917 2921 2928 2931 2936 2939 2935 2942 2948 2951 2952 2954 2957 2958 2960 2962 2963 2965 2966 2968 2969 2971 2973 2976 2979 2981 2980 2982 2985 2987 2989 2991 2994
2946 2945 2943 2939 2931 2920 2915 2914 2909 2908 2899 2910 2914 2917 2925 2934 2929 2931 2939 2941 2940 2943 2947 2950 2952 2954 2956 2957 2958 2960 2962 2964 2965 2966 2969 2970 2972 2974 2977 2979 2982 2983 2985 2988
2944 2940 2937 2931 2924 2916 2908 2901 2897 2897 2899 2896 2903 2911 2917 2919 2924 2932 2930 2931 2934 2936 2938 2943 2946 2948 2950 2951 2951 2953 2955 2958 2960 2961 2962 2964 2966 2968 2971 2973 2975 2975 2978 2979
2944 2940 2935 2930 2924 2908 2899 2891 2893 2888 2881 2886 2891 2896 2903 2909 2916 2920 2923 2926 2928 2930 2934 2938 2940 2942 2943 2945 2947 2948 2949 2951 2952 2955 2957 2959 2960 2962 2963 2964 2965 2967 2969 2971
2946 2945 2940 2937 2921 2909 2896 2885 2874 2872 2871 2876 2883 2886 2893 2898 2904 2911 2916 2921 2925 2927 2931 2934 2936 2939 2941 2942 2942 2943 2944 2946 2947 2948 2951 2953 2955 2957 2958 2959 2960 2960 2964 2965
2944 2940 2934 2926 2916 2901 2888 2870 2863 2861 2869 2874 2879 2883 2887 2891 2898 2904 2910 2917 2921 2925 2927 2930 2933 2935 2937 2938 2940 2941 2943 2944 2945 2947 2949 2951 2952 2954 2955 2956 2957 2959 2960 2960
2946 2939 2930 2922 2911 2895 2884 2871 2867 2869 2872 2874 2876 2878 2882 2888 2894 2901 2908 2914 2918 2921 2924 2927 2930 2933 2936 2938 2940 2942 2943 2944 2945 2946 2948 2950 2951 2952 2953 2954 2954 2955 2956 2957
2946 2939 2932 2922 2916 2908 2895 2882 2874 2871 2871 2869 2873 2879 2884 2891 2896 2903 2908 2912 2916 2920 2923 2926 2930 2933 2935 2937 2940 2941 2943 2944 2945 2946 2947 2947 2947 2947 2948 2949 2951 2951 2952 2952